Tracking 18843 objects as of 20-November-2017
HD Live streaming from Space Station
objects crossing your sky now

LEMUR 2 MCPEAKE

Track LEMUR 2 MCPEAKE now!
10-day predictions
LEMUR 2 MCPEAKE is classified as:


NORAD ID: 42782
Int'l Code: 2017-036T
Perigee: 499.3 km
Apogee: 518.7 km
Inclination: 97.4 °
Period: 94.7 minutes
Semi major axis: 6880 km
RCS: Unknown
Launch date: June 23, 2017
Source: United States (US)
Launch site: SRIHARIKOTA (SRI)
Uplink (MHz):
Downlink (MHz):
Beacon (MHz):
Mode:
Call sign:
Status:

aabbcc
Your satellite tracking list
Your tracking list is empty




NASA's NSSDC Master Catalog

Two Line Element Set (TLE):
1 42782U 17036T   17324.15373980  .00002212  00000-0  10174-3 0  9996
2 42782  97.4319  22.0750 0014091  88.0754 272.2096 15.21317638 22729
Source of the keplerian elements: AFSPC